Regional Weather Roundup
Issued by NWS New Orleans/Baton Rouge, LA

Home | Current Version | Previous Version | Text Only | Print | Product List | Glossary Off
Versions: 1 2 3 4 5 6 7 8 9 10 11 12 13 14 15 16 17 18 19 20 21 22 23 24 25 26 27 28 29 30 31 32 33 34 35 36 37 38 39 40 41 42 43 44 45 46 47 48 49 50

279
ASUS44 KLIX 272010
RWRLIX
NEW ORLEANS REGIONAL WEATHER ROUNDUP
NATIONAL WEATHER SERVICE NEW ORLEANS LA
300 PM CDT WED AUG 27 2014

NOTE: "FAIR" INDICATES FEW OR NO CLOUDS BELOW 12,000 FEET WITH NO
      SIGNIFICANT WEATHER AND/OR OBSTRUCTIONS TO VISIBILITY.
      SKY/WX - SKY CONDITION AND SIGNIFICANT WEATHER.
      TMP - AIR TEMPERATURE.     DP    - DEWPOINT TEMPERATURE.
      RH  - RELATIVE HUMIDITY.   PRES  - PRESSURE.
      HI  - HEAT INDEX.          WCI   - WIND CHILL INDEX.

*  THESE STATIONS ARE NOT NWS OR FAA STATIONS AND ARE NOT UNDER
   NWS QUALITY CONTROL.

LAZ038-040-048-061>063-065>067-069-272100-
SOUTHEAST LOUISIANA

CITY           SKY/WX    TMP DP  RH WIND       PRES   REMARKS
N.O. AUDUBON   NOT AVBL
N.O. INTL ARPT CLOUDY    90  72  55 E12       29.99F HX  97
N.O. LAKEFRONT CLOUDY    87  75  67 E13       30.00F HX  96
N.O. DOWNTOWN* MOCLDY    84  72  65 SE7       30.01S
SLIDELL        CLOUDY    90  71  53 CALM      29.99F HX  96
BATON ROUGE    PTSUNNY   89  71  55 E6        29.99F HX  95
BOOTHVILLE     PTSUNNY   88  76  67 E15       29.99F HX  99
BELLE CHASSE   TSTM      75  69  81 NE10G25   30.00F
BOGALUSA*        N/A     96  65  36 SE3       30.00F HX  98
GALLIANO*      NOT AVBL
NEW ROADS*       N/A     89  72  56 NE7       29.99F HX  96
GONZALES*        N/A     92  73  54 E8        29.98S HX 101
HAMMOND*       PTSUNNY   86  70  58 SE3       30.02S
HOUMA*         NOT AVBL
PORT FOURCHON* PTCLDY    86  73  66 NE14G26   30.00S

$$

MSZ070-080>082-272100-
SOUTHERN MISSISSIPPI

CITY           SKY/WX    TMP DP  RH WIND       PRES   REMARKS
MCCOMB         MOSUNNY   93  67  42 MISG      30.01F HX  96
GULFPORT       MOSUNNY   90  73  57 SE18      30.00F HX  98
BILOXI         CLOUDY    87  73  64 SE8       30.01F
PASCAGOULA     CLOUDY    87  73  62 S14       30.00F
STENNIS ARPT*  MOSUNNY  N/A N/A N/A SE9G16    30.00F

$$

COASTAL OBSERVATIONS
LAKE AND NEARSHORE STATIONS

STATION/POSITION TIME  TEMP    WIND        PRES    WAVE
                       AIR SEA DIR/SP/G            HT/PER
                 (UTC) (F)     (DEG/KT/KT) (MB)    (FT/S)
PASCAGOULA       2000   88     140/ 10/ 15 1015.6
WAVELAND YACHT   2000   85     130/ 13/ 16 1015.4
GRAND ISLE       2000   85 84   90/  9/ 14 1016.2
SOUTHWEST PASS   2000   92 89   60/  9/ 11 1015.5
NEW CANAL        2000   87 85   80/ 10/ 14 1016.1
SHELL BEACH      2000   85 82   80/ 15/ 16 1015.3

OFFSHORE STATIONS

STATION/POSITION TIME  TEMP    WIND        PRES    WAVE
                       AIR SEA DIR/SP/G            HT/PER
                 (UTC) (F)     (DEG/KT/KT) (MB)    (FT/S)
64 S DAUPHIN ISL 1949   81 86   80/ 21/ 27 1016.0

$$




USA.gov is the U.S. government's official web portal to all federal, state and local government web resources and services.